KES67Q TFFR-TFFG

Flight info

Callsign KES67Q
Flight time 0h 40m
Altitude 14000
Route ANU B520 PJM
Aircraft AT45/M-SDFGIRY/S

Departure

Time 2026-04-26 20:33
Airport Maryse Condé International Airport (TFFR)

Arrival

Time 2026-04-26 21:14
Airport Grand Case-l'Espérance Airport (TFFG)
Time Latitude Longitude Altitude Speed Heading
2026-04-26 20:26 16.27088 -61.52942 19 ft 0 kts 223°
2026-04-26 20:30 16.27087 -61.52944 19 ft 0 kts 223°
2026-04-26 20:30 16.27090 -61.52997 19 ft 10 kts 269°
2026-04-26 20:31 16.27048 -61.53040 19 ft 8 kts 203°
2026-04-26 20:31 16.26991 -61.53044 19 ft 13 kts 170°
2026-04-26 20:31 16.26864 -61.52971 19 ft 21 kts 102°
2026-04-26 20:31 16.26787 -61.52936 19 ft 13 kts 193°
2026-04-26 20:32 16.26703 -61.52953 19 ft 11 kts 190°
2026-04-26 20:32 16.26609 -61.52970 20 ft 19 kts 190°
2026-04-26 20:32 16.26495 -61.52996 23 ft 10 kts 129°
2026-04-26 20:32 16.26491 -61.52983 23 ft 3 kts 102°
2026-04-26 20:33 16.26433 -61.52660 24 ft 80 kts 101°
2026-04-26 20:33 16.26296 -61.51911 120 ft 118 kts 104°
2026-04-26 20:33 16.26179 -61.51101 549 ft 116 kts 101°
2026-04-26 20:33 16.26142 -61.50823 648 ft 120 kts 101°
2026-04-26 20:34 16.26033 -61.49949 1029 ft 123 kts 100°
2026-04-26 20:34 16.25915 -61.49020 1304 ft 135 kts 100°
2026-04-26 20:34 16.25782 -61.48014 1642 ft 143 kts 100°
2026-04-26 20:34 16.25642 -61.46976 2023 ft 147 kts 100°
2026-04-26 20:35 16.25823 -61.45930 2387 ft 156 kts 59°
2026-04-26 20:35 16.26718 -61.45253 2638 ft 171 kts 15°
2026-04-26 20:35 16.27899 -61.45397 2983 ft 177 kts 331°
2026-04-26 20:35 16.28774 -61.46277 3371 ft 177 kts 309°
2026-04-26 20:36 16.29722 -61.47087 3738 ft 178 kts 332°
2026-04-26 20:36 16.30829 -61.47636 4107 ft 179 kts 337°
2026-04-26 20:36 16.31980 -61.48127 4473 ft 180 kts 339°
2026-04-26 20:36 16.33158 -61.48603 4837 ft 181 kts 340°
2026-04-26 20:37 16.34327 -61.49067 5190 ft 182 kts 340°
2026-04-26 20:37 16.35501 -61.49531 5537 ft 182 kts 340°
2026-04-26 20:37 16.36681 -61.49996 5878 ft 183 kts 340°
2026-04-26 20:37 16.37873 -61.50465 6216 ft 184 kts 340°
2026-04-26 20:38 16.39063 -61.50934 6546 ft 184 kts 341°
2026-04-26 20:38 16.40263 -61.51407 6871 ft 185 kts 341°
2026-04-26 20:38 16.41473 -61.51884 7192 ft 186 kts 341°
2026-04-26 20:38 16.42680 -61.52359 7507 ft 186 kts 341°
2026-04-26 20:39 16.43896 -61.52839 7816 ft 187 kts 341°
2026-04-26 20:39 16.44694 -61.53153 8015 ft 187 kts 341°
2026-04-26 20:39 16.46331 -61.53798 8417 ft 188 kts 341°
2026-04-26 20:39 16.47543 -61.54276 8707 ft 189 kts 341°
2026-04-26 20:40 16.48774 -61.54762 8996 ft 189 kts 341°
2026-04-26 20:40 16.50010 -61.55249 9280 ft 190 kts 341°
2026-04-26 20:40 16.51244 -61.55736 9558 ft 190 kts 341°
2026-04-26 20:40 16.52485 -61.56225 9831 ft 191 kts 341°
2026-04-26 20:41 16.53743 -61.56721 10103 ft 192 kts 341°
2026-04-26 20:41 16.54983 -61.57207 10391 ft 190 kts 340°
2026-04-26 20:41 16.56208 -61.57687 10756 ft 186 kts 339°
2026-04-26 20:41 16.57416 -61.58168 11009 ft 187 kts 339°
2026-04-26 20:42 16.58650 -61.58657 11265 ft 188 kts 339°
2026-04-26 20:42 16.59293 -61.58911 11399 ft 189 kts 339°
2026-04-26 20:42 16.60536 -61.59403 11654 ft 190 kts 339°
2026-04-26 20:42 16.61785 -61.59896 11904 ft 190 kts 339°
2026-04-26 20:43 16.63047 -61.60394 12002 ft 199 kts 339°
2026-04-26 20:43 16.64389 -61.60925 12019 ft 211 kts 339°
2026-04-26 20:43 16.65802 -61.61483 12020 ft 222 kts 339°
2026-04-26 20:43 16.67276 -61.62065 12019 ft 231 kts 339°
2026-04-26 20:44 16.68788 -61.62662 12017 ft 239 kts 339°
2026-04-26 20:44 16.70371 -61.63288 12015 ft 245 kts 339°
2026-04-26 20:44 16.71966 -61.63919 12014 ft 250 kts 339°
2026-04-26 20:44 16.73608 -61.64568 12013 ft 254 kts 339°
2026-04-26 20:45 16.75268 -61.65225 12012 ft 258 kts 339°
2026-04-26 20:45 16.76952 -61.65890 12011 ft 261 kts 339°
2026-04-26 20:45 16.78669 -61.66570 12011 ft 263 kts 339°
2026-04-26 20:45 16.80374 -61.67244 12010 ft 265 kts 339°
2026-04-26 20:46 16.82114 -61.67933 12010 ft 267 kts 339°
2026-04-26 20:46 16.83843 -61.68618 12010 ft 268 kts 339°
2026-04-26 20:46 16.85598 -61.69312 12010 ft 269 kts 339°
2026-04-26 20:46 16.87333 -61.69999 12009 ft 270 kts 339°
2026-04-26 20:47 16.89097 -61.70698 12009 ft 271 kts 339°
2026-04-26 20:47 16.90261 -61.71159 12009 ft 271 kts 339°
2026-04-26 20:47 16.92612 -61.72091 12009 ft 272 kts 339°
2026-04-26 20:47 16.94390 -61.72796 12009 ft 272 kts 339°
2026-04-26 20:48 16.96147 -61.73492 12009 ft 273 kts 339°
2026-04-26 20:48 16.97923 -61.74197 12009 ft 273 kts 339°
2026-04-26 20:48 16.99680 -61.74893 12009 ft 273 kts 339°
2026-04-26 20:48 17.01234 -61.75510 12009 ft 273 kts 339°
2026-04-26 20:49 17.02889 -61.76175 12003 ft 274 kts 341°
2026-04-26 20:49 17.04653 -61.76871 12002 ft 274 kts 341°
2026-04-26 20:49 17.06435 -61.77576 12002 ft 274 kts 341°
2026-04-26 20:49 17.08222 -61.78284 12002 ft 275 kts 341°
2026-04-26 20:50 17.10010 -61.78993 12002 ft 275 kts 341°
2026-04-26 20:50 17.11796 -61.79716 11999 ft 275 kts 338°
2026-04-26 20:50 17.13422 -61.80731 12000 ft 277 kts 324°
2026-04-26 20:50 17.14811 -61.82124 11999 ft 278 kts 311°
2026-04-26 20:51 17.15885 -61.83830 12000 ft 279 kts 298°
2026-04-26 20:51 17.16788 -61.85599 12003 ft 279 kts 301°
2026-04-26 20:51 17.17834 -61.87337 12003 ft 279 kts 304°
2026-04-26 20:51 17.18924 -61.89003 12002 ft 279 kts 306°
2026-04-26 20:52 17.20043 -61.90654 12002 ft 279 kts 307°
2026-04-26 20:52 17.21192 -61.92323 12002 ft 279 kts 307°
2026-04-26 20:52 17.22203 -61.93781 12002 ft 279 kts 307°
2026-04-26 20:52 17.23343 -61.95421 12003 ft 279 kts 307°
2026-04-26 20:53 17.24486 -61.97061 12003 ft 279 kts 307°
2026-04-26 20:53 17.25617 -61.98685 12003 ft 279 kts 307°
2026-04-26 20:53 17.26761 -62.00328 12003 ft 279 kts 307°
2026-04-26 20:53 17.27904 -62.01967 12003 ft 279 kts 307°
2026-04-26 20:54 17.29051 -62.03614 12002 ft 279 kts 307°
2026-04-26 20:54 17.30179 -62.05234 12002 ft 279 kts 307°
2026-04-26 20:54 17.31323 -62.06878 12002 ft 279 kts 307°
2026-04-26 20:54 17.32471 -62.08527 12002 ft 279 kts 307°
2026-04-26 20:55 17.33599 -62.10148 12002 ft 279 kts 307°
2026-04-26 20:55 17.34744 -62.11794 12002 ft 279 kts 307°
2026-04-26 20:55 17.35891 -62.13443 12002 ft 279 kts 307°
2026-04-26 20:55 17.37023 -62.15071 12002 ft 279 kts 307°
2026-04-26 20:56 17.38167 -62.16716 12002 ft 279 kts 307°
2026-04-26 20:56 17.39314 -62.18367 12003 ft 279 kts 307°
2026-04-26 20:56 17.40439 -62.19987 12003 ft 279 kts 307°
2026-04-26 20:56 17.41594 -62.21649 12004 ft 279 kts 307°
2026-04-26 20:57 17.42728 -62.23281 12004 ft 279 kts 307°
2026-04-26 20:57 17.43870 -62.24926 12005 ft 279 kts 307°
2026-04-26 20:57 17.45013 -62.26573 12005 ft 279 kts 307°
2026-04-26 20:57 17.46151 -62.28213 12006 ft 279 kts 307°
2026-04-26 20:58 17.47287 -62.29849 12006 ft 279 kts 307°
2026-04-26 20:58 17.48425 -62.31490 12006 ft 279 kts 307°
2026-04-26 20:58 17.49569 -62.33140 12006 ft 279 kts 307°
2026-04-26 20:58 17.50697 -62.34768 12006 ft 279 kts 307°
2026-04-26 20:59 17.51842 -62.36419 12006 ft 279 kts 307°
2026-04-26 20:59 17.52984 -62.38067 12006 ft 279 kts 307°
2026-04-26 20:59 17.54125 -62.39714 12005 ft 279 kts 307°
2026-04-26 20:59 17.55254 -62.41343 12004 ft 279 kts 307°
2026-04-26 21:00 17.56390 -62.42984 12004 ft 279 kts 307°
2026-04-26 21:00 17.57541 -62.44647 12003 ft 279 kts 307°
2026-04-26 21:00 17.58680 -62.46292 12003 ft 279 kts 307°
2026-04-26 21:00 17.59819 -62.47938 12003 ft 279 kts 307°
2026-04-26 21:01 17.60955 -62.49580 12003 ft 279 kts 307°
2026-04-26 21:01 17.62102 -62.51240 12003 ft 279 kts 307°
2026-04-26 21:01 17.63239 -62.52883 12003 ft 279 kts 307°
2026-04-26 21:01 17.64375 -62.54527 12003 ft 279 kts 307°
2026-04-26 21:02 17.65511 -62.56171 12003 ft 279 kts 307°
2026-04-26 21:02 17.66647 -62.57815 12003 ft 279 kts 307°
2026-04-26 21:02 17.67792 -62.59472 12003 ft 279 kts 307°
2026-04-26 21:02 17.68933 -62.61124 12003 ft 279 kts 307°
2026-04-26 21:03 17.70082 -62.62788 12003 ft 279 kts 307°
2026-04-26 21:03 17.71224 -62.64443 12003 ft 279 kts 307°
2026-04-26 21:03 17.72372 -62.66106 12001 ft 279 kts 307°
2026-04-26 21:03 17.73519 -62.67768 12001 ft 279 kts 307°
2026-04-26 21:04 17.74663 -62.69427 12001 ft 279 kts 307°
2026-04-26 21:04 17.75809 -62.71090 11999 ft 279 kts 307°
2026-04-26 21:04 17.76937 -62.72725 11999 ft 279 kts 307°
2026-04-26 21:04 17.78145 -62.74319 11991 ft 278 kts 315°
2026-04-26 21:05 17.79615 -62.75684 11594 ft 285 kts 320°
2026-04-26 21:05 17.81137 -62.77037 11102 ft 288 kts 321°
2026-04-26 21:05 17.82642 -62.78371 10609 ft 287 kts 321°
2026-04-26 21:05 17.84180 -62.79733 10103 ft 287 kts 321°
2026-04-26 21:06 17.85706 -62.81082 9601 ft 286 kts 321°
2026-04-26 21:06 17.87211 -62.82411 9103 ft 285 kts 321°
2026-04-26 21:06 17.88728 -62.83749 8600 ft 283 kts 321°
2026-04-26 21:06 17.90215 -62.85060 8105 ft 282 kts 321°
2026-04-26 21:07 17.91714 -62.86380 7604 ft 281 kts 321°
2026-04-26 21:07 17.93208 -62.87692 7104 ft 280 kts 321°
2026-04-26 21:07 17.94698 -62.89000 6604 ft 279 kts 321°
2026-04-26 21:07 17.96174 -62.90293 6089 ft 278 kts 321°
2026-04-26 21:08 17.97690 -62.91548 5536 ft 277 kts 324°
2026-04-26 21:08 17.99278 -62.92685 4982 ft 275 kts 327°
2026-04-26 21:08 18.00861 -62.93800 4429 ft 273 kts 327°
2026-04-26 21:08 18.02419 -62.94893 3883 ft 271 kts 327°
2026-04-26 21:09 18.03994 -62.95997 3327 ft 270 kts 327°
2026-04-26 21:09 18.05528 -62.97070 2784 ft 268 kts 327°
2026-04-26 21:09 18.07070 -62.98147 2235 ft 267 kts 327°
2026-04-26 21:09 18.08616 -62.99223 1687 ft 265 kts 327°
2026-04-26 21:10 18.10110 -63.00262 1516 ft 248 kts 327°
2026-04-26 21:10 18.11480 -63.01216 1414 ft 232 kts 327°
2026-04-26 21:10 18.12769 -63.02172 1294 ft 218 kts 319°
2026-04-26 21:10 18.13512 -63.03466 1301 ft 198 kts 286°
2026-04-26 21:11 18.13905 -63.04778 1265 ft 181 kts 288°
2026-04-26 21:11 18.14152 -63.06058 935 ft 183 kts 267°
2026-04-26 21:11 18.13814 -63.07283 876 ft 168 kts 237°
2026-04-26 21:11 18.13082 -63.08025 1045 ft 128 kts 206°
2026-04-26 21:12 18.12301 -63.08342 948 ft 112 kts 190°
2026-04-26 21:12 18.11770 -63.08390 807 ft 111 kts 169°
2026-04-26 21:12 18.11116 -63.08018 597 ft 107 kts 134°
2026-04-26 21:12 18.10751 -63.07352 476 ft 107 kts 107°
2026-04-26 21:13 18.10542 -63.06597 327 ft 108 kts 109°
2026-04-26 21:13 18.10328 -63.05847 178 ft 107 kts 108°
2026-04-26 21:13 18.10111 -63.05107 21 ft 103 kts 108°
2026-04-26 21:13 18.09963 -63.04591 16 ft 50 kts 107°
2026-04-26 21:14 18.09927 -63.04466 18 ft 3 kts 191°
2026-04-26 21:14 18.09955 -63.04567 16 ft 26 kts 285°
2026-04-26 21:14 18.10002 -63.04733 16 ft 20 kts 303°
2026-04-26 21:14 18.10088 -63.04747 16 ft 7 kts 309°
2026-04-26 21:15 18.10104 -63.04796 16 ft 7 kts 286°
2026-04-26 21:15 18.10129 -63.04838 16 ft 6 kts 343°
2026-04-26 21:15 18.10145 -63.04820 16 ft 5 kts 154°
2026-04-26 21:15 18.10138 -63.04816 16 ft 0 kts 154°